This demonstration page uses our WeatherBlox Daily Observations layout. Learn more.

Left ArrowRight Arrow

31.84235, -102.49876

Hourly Observations for May 30, 2022

Temp ( °F °C ) Dew Point ( °F °C ) Humidity (%) Winds ( mph kmh ) Pressure ( in mb ) Visibility ( mi km ) Precip ( " mm )
12:53 am 00:53 Clear 85 29.4 50 10 30 30 S 21 33 29.42 996 10 16 0.00 0.00
1:53 am 01:53 Clear 83 28.3 52 11.1 34 34 SW 21 33 29.46 998 10 16 0.00 0.00
2:53 am 02:53 Clear 81 27.2 55 12.8 41 41 S 24 39 29.44 997 10 16 0.00 0.00
3:53 am 03:53 Clear 79 26.1 57 13.9 47 47 S 20 31 29.45 997 10 16 0.00 0.00
4:53 am 04:53 Clear 78 25.6 60 15.6 54 54 S 20 31 29.47 998 10 16 0.00 0.00
5:53 am 05:53 Clear 76 24.4 62 16.7 62 62 S 18 30 29.49 999 10 16 0.00 0.00
6:53 am 06:53 Sunny 74 23.3 63 17.2 69 69 SSW 13 20 29.52 1000 10 16 0.00 0.00
7:53 am 07:53 Sunny 75 23.9 63 17.2 66 66 SSW 15 24 29.55 1001 10 16 0.00 0.00
8:53 am 08:53 Sunny 79 26.1 60 15.6 52 52 SW 15 24 29.58 1002 10 16 0.00 0.00
9:53 am 09:53 Sunny 82 27.8 58 14.4 44 44 SW 14 22 29.60 1002 10 16 0.00 0.00
10:53 am 10:53 Sunny 86 30 53 11.7 32 32 WSW 17 28 29.60 1002 10 16 0.00 0.00
11:53 am 11:53 Sunny 89 31.7 50 10 26 26 SW 18 30 29.58 1002 10 16 0.00 0.00
12:53 pm 12:53 Sunny 93 33.9 40 4.4 16 16 SW 15 24 29.57 1001 10 16 0.00 0.00
1:53 pm 13:53 Sunny 96 35.6 34 1.1 11 11 SW 18 30 29.56 1001 10 16 0.00 0.00
2:53 pm 14:53 Sunny 97 36.1 33 0.6 10 10 WSW 22 35 29.54 1000 10 16 0.00 0.00
3:53 pm 15:53 Sunny 97 36.1 29 -1.7 9 9 SW 17 28 29.53 1000 10 16 0.00 0.00
4:53 pm 16:53 Sunny 97 36.1 33 0.6 10 10 SW 17 28 29.51 999 10 16 0.00 0.00
5:53 pm 17:53 Sunny 98 36.7 34 1.1 11 11 SW 20 31 29.50 999 10 16 0.00 0.00
6:53 pm 18:53 Sunny 98 36.7 36 2.2 11 11 SSW 17 28 29.49 999 10 16 0.00 0.00
7:53 pm 19:53 Sunny 96 35.6 41 5 15 15 S 10 17 29.49 999 10 16 0.00 0.00
8:53 pm 20:53 Clear 92 33.3 55 12.8 29 29 S 18 30 29.52 1000 10 16 0.00 0.00
9:53 pm 21:53 Clear 89 31.7 57 13.9 34 34 S 20 31 29.54 1000 10 16 0.00 0.00
10:53 pm 22:53 Clear 86 30 59 15 40 40 S 20 31 29.57 1002 10 16 0.00 0.00
11:53 pm 23:53 Clear 84 28.9 62 16.7 48 48 S 13 20 29.59 1002 10 16 0.00 0.00

Powered by AerisWeather